Home > Time Zones > World Clock > Weather > Cuba > Havana > Past weeks

Flag for Cuba Weather past 2 weeks in Havana, Cuba

Now
46 °F

Passing clouds.


Feels Like: 46 °F
Forecast: 64 / 75 °F
Wind: 2 mph from North

Location: Aeropuerto Jose Marti - Rancho-Boyeros - Habana

Current Time: Jan 29, 2015 at 5:47:12 AM

Latest Report: Jan 29, 2015 at 4:55 AM


Visibility: N/A

Pressure: 30.12 "Hg

Humidity: 87%

Dew point: 43 °F

Location of HavanaLocation

Historic Weather in Havana — Graph

°F

Havana temperature yesterday

Maximum temperature yesterday: 73 °F (at 11:55 AM)
Minimum temperature yesterday: 50 °F (at 11:55 PM)
Average temperature yesterday: 61 °F

Past Weeks' High & Low Weather Summary

 TemperatureHumidityPressure
High86 °F (Jan 22, 2:55 PM)100% (Jan 16, 3:55 AM)30.18 "Hg (Jan 16, 3:55 AM)
Low41 °F (Jan 22, 4:55 AM)40% (Jan 22, 2:55 PM)29.98 "Hg (Jan 20, 5:55 PM)
Average69 °F74%30.07 "Hg
* Reported Jan 14 4:55 AM — Jan 29 4:55 AM, Havana, Weather by CustomWeather, © 2014

Note: Actual official high and low records may vary slightly from our data, if they occured in-between our weather recording intervals... More about our weather records

Advertising

Havana weather history for previous 24 hours

 ConditionsComfort  
Time TempWeatherWind HumidityBarometerVisibility
4:55 AM
Jan 29
46 °FPassing clouds.2 mph87%30.12 "HgN/A
3:55 AM46 °FClear.No wind87%30.15 "Hg10 mi
2:55 AM46 °FClear.No wind87%30.15 "Hg10 mi
1:55 AM48 °FClear.3 mph87%30.15 "Hg10 mi
12:55 AM48 °FClear.3 mph87%30.15 "Hg10 mi
11:55 PM
Jan 28
50 °FClear.2 mph82%30.18 "Hg10 mi
10:55 PM54 °FPassing clouds.3 mph72%30.18 "HgN/A
9:55 PM59 °FClear.9 mph59%30.18 "Hg10 mi
8:55 PM61 °FClear.9 mph55%30.18 "Hg10 mi
7:55 PM63 °FClear.10 mph52%30.15 "Hg10 mi
6:55 PM63 °FClear.10 mph56%30.15 "Hg10 mi
5:55 PM66 °FSunny.14 mph46%30.12 "Hg10 mi
4:55 PM68 °FPassing clouds.16 mph46%30.12 "HgN/A
3:55 PM70 °FScattered clouds.16 mph53%30.12 "HgN/A
2:55 PM72 °FPartly sunny.16 mph53%30.12 "HgN/A
1:55 PM72 °FPartly sunny.16 mph57%30.12 "HgN/A
12:55 PM73 °FPartly sunny.16 mph53%30.12 "HgN/A
11:55 AM73 °FPartly sunny.15 mph57%30.15 "HgN/A
10:55 AM72 °FPartly sunny.15 mph57%30.18 "HgN/A
9:55 AM72 °FPartly sunny.10 mph61%30.15 "HgN/A
8:55 AM66 °FScattered clouds.1 mph78%30.15 "Hg6 mi
7:55 AM54 °FScattered clouds.1 mph88%30.12 "Hg6 mi
6:55 AM52 °FPassing clouds.2 mph88%30.12 "Hg6 mi
5:55 AM52 °FPassing clouds.1 mph88%30.09 "Hg6 mi
Weather by CustomWeather, © 2014

See weather overviewHow to use our weather pages